Wind_Speed
14 16 16 16 14 12 9 7 9 8 8 12 15 16 19 23 23 21 21 21 20 21 19 18 20 18 20 18 13 8 6 14 19 15 12 6 11 11 12 14 15 12 8 6 3 3 4 5 6 6 7 10 12 13 15 16 19 21 21 23 24 22 18 11 8 16 23 28 32 30 27 25 22 21 21 18 16 16 17 18 19 19 18 17 17 18
16 19 18 17 16 14 13 8 8 10 9 12 14 16 18 21 23 21 19 19 21 22 22 21 20 19 18 14 15 15 8 11 18 16 13 11 12 13 13 14 12 9 8 7 5 4 3 4 4 6 8 9 11 13 15 17 19 22 25 28 30 27 24 17 12 17 23 31 35 31 24 23 24 22 22 21 18 18 18 19 19 19 18 17 17 18
18 20 16 16 16 16 17 9 7 10 10 11 14 15 18 21 24 25 22 21 21 22 22 20 20 17 9 8 17 19 6 7 11 10 9 12 14 15 12 10 8 7 7 6 5 4 2 2 3 6 8 9 11 13 14 15 17 20 23 25 25 23 19 15 15 18 21 29 37 34 23 19 24 23 23 24 21 19 20 20 20 20 19 18 18 17
18 18 13 15 15 9 10 7 6 9 9 10 13 16 19 20 22 24 24 23 21 19 17 15 18 14 9 11 16 14 6 2 4 8 13 14 15 15 11 9 8 7 6 5 5 3 2 2 3 6 9 12 14 16 17 18 18 18 20 22 23 20 17 14 11 16 21 26 34 36 26 20 25 25 24 25 22 20 20 22 22 22 21 20 19 18
18 15 10 12 13 9 5 5 6 9 9 10 13 16 19 18 18 21 21 19 16 12 10 15 18 11 12 17 12 5 5 11 15 16 18 15 13 12 11 10 8 8 8 7 6 5 4 4 6 9 11 14 16 18 19 19 20 19 19 22 23 21 18 15 10 10 19 25 30 35 31 25 26 26 26 27 25 23 21 22 25 25 23 22 21 20
18 14 10 11 12 11 10 11 12 12 11 13 14 15 17 17 18 19 17 17 16 11 9 17 15 8 14 16 10 17 19 22 18 15 15 13 11 10 10 10 9 9 9 9 8 7 7 8 10 12 14 16 18 19 19 21 22 20 20 22 23 22 19 17 15 11 10 17 22 28 30 28 27 27 26 27 28 28 27 26 28 27 25 23 22 20
17 14 12 11 9 11 15 15 14 14 13 13 14 16 18 18 18 18 17 16 16 13 15 20 12 9 16 9 18 20 20 21 17 14 13 12 11 11 11 11 10 10 9 8 8 8 9 9 11 13 16 20 21 20 20 21 22 22 21 21 22 22 21 18 17 16 12 11 13 17 23 27 28 27 28 29 30 31 31 31 30 30 29 27 24 22
15 14 10 7 8 14 18 16 14 13 13 12 14 18 22 21 18 18 18 14 14 15 16 18 12 12 9 11 22 19 20 21 18 16 13 12 12 12 12 11 10 9 8 8 9 10 11 12 13 16 19 20 20 18 17 18 19 21 22 20 20 21 20 18 17 17 17 16 17 17 17 21 27 30 31 31 32 33 33 32 32 33 34 33 29 26
14 13 10 9 12 15 13 11 10 10 12 14 17 20 21 22 19 17 17 13 12 13 12 14 13 5 3 16 19 18 20 21 21 20 17 16 15 14 13 12 10 10 9 9 10 11 13 15 17 19 19 17 16 14 14 16 16 18 19 19 18 19 19 18 18 19 19 19 19 20 20 18 21 29 33 32 32 34 34 33 32 31 32 33 32 30
15 16 14 13 11 8 6 6 9 11 13 14 17 19 19 18 15 13 13 10 6 5 5 13 14 3 6 12 16 17 20 21 21 20 18 17 16 14 13 11 9 8 7 8 10 10 11 13 16 18 18 17 17 16 17 17 17 17 18 18 18 19 21 21 21 21 20 20 21 21 22 20 14 17 25 29 32 36 38 37 35 32 30 29 29 29
14 14 13 7 2 1 4 6 8 10 12 13 15 19 20 15 9 7 7 5 3 2 3 14 17 5 3 5 10 16 20 21 19 17 16 14 12 10 9 7 7 8 9 10 11 12 12 12 13 15 17 19 21 21 22 22 21 21 21 21 22 22 23 24 24 25 24 24 24 21 21 21 15 11 13 19 26 32 36 38 37 35 31 28 27 28
7 5 3 2 3 3 7 8 8 10 12 13 15 16 15 12 7 5 6 4 2 3 1 14 20 8 2 5 10 17 20 18 16 15 15 13 12 11 11 11 12 12 12 12 13 15 17 17 17 18 20 22 24 26 26 26 25 24 24 25 27 27 27 28 28 29 30 30 30 27 22 20 18 15 13 14 17 22 27 32 36 36 34 32 29 27
7 4 3 1 3 7 9 11 12 13 13 14 15 11 7 8 6 4 6 4 2 4 6 15 20 9 5 9 13 17 17 15 13 13 14 13 12 13 13 13 14 15 16 18 19 21 22 22 24 25 26 27 28 29 29 30 29 28 27 27 29 31 31 33 33 33 34 35 36 34 29 24 20 19 19 18 17 19 23 26 31 35 37 36 33 30
7 5 6 5 7 8 11 13 14 14 15 16 13 8 4 3 3 2 4 3 4 9 14 19 17 3 9 12 14 16 14 14 13 12 11 11 12 12 13 13 15 17 19 22 23 25 26 26 27 28 29 30 31 32 32 33 33 32 32 32 33 35 35 36 37 37 38 38 39 36 32 28 24 21 21 21 20 21 24 26 29 33 36 38 37 34
8 6 9 10 10 10 11 9 10 14 18 15 9 6 4 2 3 1 3 2 5 11 16 17 11 3 9 10 13 16 14 14 14 13 12 12 13 13 15 15 16 17 20 22 25 27 29 29 29 30 31 32 33 34 35 35 36 36 37 38 39 40 41 41 42 42 40 39 39 38 34 29 27 24 23 23 23 24 26 28 30 31 34 38 39 36
10 10 11 11 11 14 16 12 9 13 14 9 7 8 6 3 3 5 6 6 8 7 8 8 5 5 9 10 13 15 15 16 15 14 14 13 14 14 15 15 16 17 19 22 26 29 32 33 35 36 36 37 37 37 38 40 41 42 44 46 47 47 46 47 47 46 44 40 39 39 39 35 31 27 25 25 26 27 28 29 31 32 33 36 39 39
10 12 12 9 12 16 19 16 12 11 10 8 9 11 8 7 10 9 7 6 4 2 3 7 4 5 9 9 14 16 15 16 15 12 12 12 13 15 16 17 19 20 23 27 30 33 35 36 38 39 40 42 44 46 48 51 52 53 52 51 50 49 46 46 47 47 45 42 40 40 42 42 39 35 30 27 27 29 30 30 32 33 35 36 37 39
11 17 19 17 15 15 13 12 10 8 8 7 9 13 11 8 8 5 3 2 1 1 3 7 8 11 13 10 15 18 17 17 13 11 12 14 16 18 20 21 23 25 28 31 34 36 37 38 39 41 44 46 50 53 56 59 60 58 55 52 48 46 43 40 41 43 43 41 39 38 39 42 43 42 38 34 30 30 31 32 32 34 36 37 37 38
12 18 23 21 15 11 12 12 9 5 7 2 6 11 11 6 6 4 3 2 1 1 2 7 12 14 16 14 15 15 15 16 14 14 15 17 20 21 23 25 28 31 35 38 41 42 43 44 46 48 50 52 53 56 57 59 58 55 52 49 45 42 40 37 35 36 37 37 36 35 34 35 38 41 42 41 38 35 33 33 34 34 36 38 39 39
13 13 17 20 17 16 17 16 11 5 8 8 7 7 10 8 8 7 7 5 4 2 2 5 8 10 14 15 13 10 10 12 14 16 18 21 25 27 30 34 37 42 46 48 48 48 49 51 52 53 54 56 56 58 57 54 51 46 44 43 42 40 39 38 37 35 36 36 36 35 34 33 34 35 38 41 42 39 36 36 36 35 37 38 40 41
14 11 15 22 24 22 19 15 12 10 10 13 14 11 13 14 11 10 11 11 8 5 3 2 4 9 13 13 11 11 12 14 15 18 22 27 30 34 36 39 42 46 49 49 47 48 50 52 54 55 56 58 60 61 59 52 46 42 39 39 40 40 40 40 40 39 38 38 38 37 35 34 34 33 34 36 40 40 38 38 38 37 37 39 41 43
16 15 19 26 27 23 20 15 12 12 13 14 16 16 16 16 14 9 7 8 7 6 3 2 4 9 14 13 11 13 14 15 19 23 28 32 34 37 39 41 43 45 47 47 47 48 51 52 54 55 56 58 61 62 59 53 48 43 41 39 39 40 40 40 40 40 39 38 39 39 36 34 34 34 33 33 36 39 38 39 40 40 38 39 41 44
18 18 21 25 24 23 21 17 12 11 13 14 13 14 14 12 9 5 3 6 8 10 11 7 5 9 15 17 16 16 17 20 25 29 32 35 38 39 41 42 44 46 47 48 49 50 52 53 54 55 56 59 61 59 55 51 48 45 42 42 41 41 40 38 37 38 38 38 38 39 38 34 32 34 35 33 33 37 38 38 40 43 43 40 40 44
16 15 18 24 25 25 22 14 8 8 10 10 9 10 12 11 8 7 9 12 12 14 15 9 4 7 14 16 16 17 22 26 30 34 35 37 40 42 44 45 47 48 50 50 51 52 52 53 55 57 58 59 56 51 47 46 45 44 43 43 42 42 40 39 38 38 39 40 40 39 39 36 33 33 36 36 34 35 38 38 39 43 46 43 40 43
17 14 17 20 20 20 16 8 7 9 8 9 9 9 10 11 12 14 17 14 11 13 14 10 8 11 13 16 20 23 27 32 35 38 39 40 42 44 46 47 48 50 51 51 51 51 52 54 56 56 55 51 47 43 44 46 46 46 46 45 43 42 42 42 42 41 40 40 41 41 41 40 37 35 37 38 36 35 37 38 38 42 46 45 42 43
18 16 17 14 7 8 10 9 13 18 16 15 16 15 15 17 19 22 21 16 14 16 16 17 18 22 21 20 25 29 31 36 38 40 41 42 44 46 47 48 49 48 48 48 49 51 52 51 48 45 44 42 41 42 44 46 48 49 49 47 44 43 44 44 45 43 40 40 41 42 42 42 40 37 38 38 36 36 37 38 39 42 45 46 43 42
18 18 18 17 15 16 19 20 20 19 20 20 19 19 20 22 24 26 23 21 23 25 27 27 26 31 34 29 28 31 33 36 38 38 40 42 43 44 45 46 46 46 47 49 50 49 45 41 39 39 40 41 41 43 45 46 49 50 51 51 49 48 47 47 47 46 44 43 43 43 44 42 40 37 37 37 35 35 37 39 41 41 43 44 43 42
20 21 22 23 25 25 25 25 22 19 22 23 21 23 25 24 26 28 28 30 28 23 30 38 31 28 35 34 31 34 35 36 37 37 38 40 40 40 42 43 45 47 48 48 45 42 38 38 40 41 42 43 44 45 47 48 49 50 51 53 53 53 51 50 49 48 48 47 46 46 46 44 40 37 36 37 36 35 37 40 42 42 40 41 42 42
21 25 27 28 30 29 26 26 25 22 24 25 24 27 29 27 26 28 30 33 31 27 33 41 36 33 38 38 36 38 38 37 37 36 37 38 38 39 42 43 44 44 43 41 40 40 40 41 43 44 46 48 47 47 47 47 49 49 51 53 54 55 54 53 52 51 49 47 45 46 47 45 41 38 37 38 37 36 38 40 43 44 40 38 39 40
22 25 27 28 31 32 29 28 29 27 28 29 28 29 30 29 28 29 31 31 30 33 37 39 39 41 41 38 38 38 36 35 35 35 36 38 40 43 44 43 41 39 38 39 40 42 42 43 44 47 50 51 49 47 47 48 49 50 51 53 54 55 56 55 56 55 50 44 43 45 46 44 41 39 39 39 39 39 39 39 44 45 41 37 37 37
24 25 25 26 30 32 31 31 30 30 31 31 32 32 32 33 33 32 33 33 32 35 36 36 38 40 37 35 36 35 34 35 36 37 41 44 46 46 44 42 40 38 39 40 41 42 43 44 46 50 52 51 48 48 49 50 51 51 53 55 55 56 58 58 58 55 49 42 41 44 45 43 41 40 40 42 42 42 39 37 43 46 40 35 36 36
25 25 26 25 26 31 33 30 30 32 32 33 37 38 35 35 35 33 32 33 34 36 35 34 37 38 36 35 36 36 37 39 41 44 48 48 45 41 39 39 39 39 40 40 41 44 46 47 49 52 52 49 46 47 49 51 52 53 54 56 57 58 58 57 56 52 46 42 42 44 45 43 41 41 43 43 44 42 38 35 42 45 39 33 33 35
28 28 29 26 25 30 29 24 27 27 23 29 38 36 30 29 28 27 27 29 33 35 34 33 34 35 34 36 38 39 41 43 45 47 46 43 39 36 36 37 38 39 40 42 44 47 48 50 52 53 51 48 47 47 47 49 51 52 53 55 56 56 55 54 53 50 45 42 42 44 46 45 42 42 44 43 43 40 35 34 41 44 39 35 33 35
31 32 33 30 28 28 24 21 23 19 17 28 35 28 22 25 24 22 23 25 27 29 28 29 31 32 32 35 38 41 43 44 44 43 39 37 35 36 37 38 39 41 44 47 50 50 51 51 51 50 48 47 47 46 45 47 48 48 50 52 53 54 54 53 52 49 44 41 43 45 47 45 42 43 44 42 40 37 33 33 41 42 38 35 34 36
36 36 36 34 32 31 27 20 13 12 20 27 23 16 17 19 18 19 21 22 24 26 27 29 31 32 33 35 37 39 39 39 39 38 37 36 36 38 40 42 45 48 50 51 51 50 50 49 49 48 47 47 46 46 46 48 48 49 49 49 50 52 52 51 51 48 42 41 43 45 46 45 42 43 42 38 36 35 32 33 40 40 35 33 33 34
36 37 38 36 33 29 24 15 10 16 28 25 15 16 21 19 19 22 24 25 24 24 26 28 29 31 33 33 33 34 34 36 38 38 38 37 39 42 44 47 50 50 50 49 49 49 49 49 49 49 48 46 46 46 47 48 49 49 48 49 50 49 47 48 49 45 41 41 42 43 44 41 40 40 39 35 34 34 31 33 39 37 31 27 25 29
30 35 36 33 31 28 23 23 25 29 33 29 23 23 24 24 25 25 24 25 23 22 25 28 29 31 30 29 29 31 35 39 42 42 41 43 45 46 47 49 49 48 48 48 48 49 49 49 50 49 47 46 45 45 46 47 47 47 48 49 48 44 43 44 43 41 40 39 40 41 39 36 37 38 35 33 34 32 30 35 36 29 24 21 15 20
21 29 32 30 30 29 25 22 20 17 19 23 23 19 17 18 20 20 23 27 26 24 27 28 26 26 25 27 31 35 38 42 47 48 48 49 50 50 50 51 49 49 49 49 49 50 49 48 47 46 45 45 45 45 45 45 46 46 46 45 42 39 37 37 38 38 37 36 37 38 35 34 36 36 34 34 33 28 28 33 30 21 21 20 12 13
17 24 30 32 30 28 23 18 15 13 14 18 17 15 16 17 18 21 25 27 24 20 20 20 21 23 27 31 36 38 39 44 50 53 52 53 53 53 53 54 53 52 52 52 52 51 49 48 47 45 44 44 44 44 43 43 45 45 41 38 35 33 32 33 35 35 34 35 37 36 33 34 35 35 34 32 28 25 27 28 22 17 19 19 12 7
18 22 30 35 34 32 27 22 22 23 22 21 19 19 22 24 24 20 14 12 14 16 17 21 24 28 32 36 38 39 41 45 51 54 54 54 55 54 54 54 55 55 55 54 51 48 47 47 45 43 43 42 42 41 41 42 43 40 35 32 31 31 31 31 32 31 31 34 35 34 33 34 35 34 32 28 25 23 22 17 10 10 15 14 9 3
18 23 29 34 37 36 32 28 28 29 29 29 28 28 28 25 20 15 12 13 18 21 24 28 30 32 36 38 39 42 44 46 49 52 54 54 54 54 54 54 53 53 51 48 44 41 40 39 39 39 40 40 40 40 39 39 39 36 32 30 30 30 30 28 27 27 29 32 33 32 33 35 35 33 27 24 22 17 15 12 9 9 13 9 2 8
17 20 25 32 35 35 33 31 29 29 32 34 33 31 29 24 18 19 22 23 25 27 30 31 32 34 37 39 42 46 48 48 49 52 54 54 53 54 54 53 51 48 44 40 36 34 33 33 34 36 38 38 38 37 36 36 35 32 30 28 27 27 25 23 23 26 28 30 30 32 34 34 34 28 21 20 18 16 17 14 12 13 13 9 6 6
18 17 20 27 30 29 28 25 21 20 25 29 28 25 24 23 22 24 26 27 28 31 32 32 34 37 40 44 47 49 49 50 52 53 53 52 52 53 54 52 48 44 40 36 33 31 31 33 34 36 37 36 35 34 33 32 31 29 27 26 24 22 21 21 23 26 27 28 30 33 34 33 28 21 17 15 16 19 19 17 17 16 13 12 9 6
22 22 24 27 26 23 24 23 19 18 21 24 24 22 21 22 25 27 28 30 31 32 33 35 38 41 44 47 49 49 51 52 52 52 52 52 53 53 51 48 43 39 37 33 30 29 31 33 34 34 34 33 33 33 32 29 28 26 25 23 20 18 19 22 24 25 26 28 32 33 31 28 22 17 15 15 19 20 16 18 22 19 16 15 10 8
19 22 26 28 28 27 29 30 26 20 20 23 26 26 25 25 27 29 30 32 33 35 37 39 40 43 44 46 48 50 52 52 51 51 51 52 51 48 46 42 38 35 33 29 27 28 30 31 31 31 31 32 32 31 30 26 24 24 23 20 17 17 20 22 23 25 26 29 33 31 26 23 18 15 14 17 25 23 15 17 23 22 19 17 11 9
19 20 23 24 26 26 28 32 31 27 26 28 29 30 30 29 31 32 33 34 36 37 38 38 40 42 44 46 50 51 50 49 49 50 50 48 45 42 39 36 31 28 26 25 25 27 28 28 29 29 30 30 29 28 26 22 20 21 20 17 16 17 20 21 22 25 27 31 33 27 20 17 16 13 13 21 31 27 17 17 23 23 18 14 12 13
25 25 26 27 29 26 24 28 30 30 30 32 33 33 34 34 36 36 36 36 36 36 35 37 39 41 44 48 50 49 47 47 48 48 46 44 42 38 34 30 26 23 22 23 24 26 27 28 28 28 27 27 27 25 22 18 16 17 17 16 16 17 19 20 22 25 27 29 28 21 15 12 14 14 13 23 33 28 19 19 24 27 26 20 15 15
27 26 26 26 30 32 32 33 32 29 28 29 31 33 34 34 35 34 33 34 34 33 34 36 38 41 45 47 46 44 44 45 45 44 43 40 37 33 29 26 24 22 22 23 24 25 27 28 27 26 26 26 25 24 20 16 14 14 14 14 16 16 18 19 21 24 24 19 19 20 15 7 11 11 13 22 30 26 18 17 20 27 32 30 23 18
30 30 27 25 30 35 36 37 37 36 34 33 34 34 34 34 34 32 31 33 33 33 34 35 37 41 43 42 40 40 42 42 41 41 40 36 32 28 26 25 23 23 24 25 25 24 25 26 26 25 25 25 23 22 19 15 12 12 12 13 14 15 16 17 19 22 18 8 8 14 8 10 16 15 18 23 27 24 19 14 11 15 24 30 29 25
35 35 32 31 35 39 37 36 37 39 40 40 39 37 36 35 35 33 32 33 32 33 34 35 36 37 37 36 37 38 40 40 39 38 36 32 27 25 24 23 22 23 25 24 23 23 24 24 25 25 25 24 22 20 17 13 10 10 11 11 11 13 15 15 17 18 10 5 1 5 10 18 18 19 23 24 25 25 23 18 14 10 12 17 19 20
33 33 31 31 34 37 37 37 36 37 40 41 40 38 37 35 33 33 33 32 32 33 34 34 35 34 33 33 34 36 37 38 37 35 32 28 24 22 21 19 20 22 24 23 22 24 24 23 23 23 23 22 20 17 14 12 11 10 8 7 9 12 14 14 16 14 4 7 8 9 17 19 18 22 24 22 23 27 26 22 19 16 14 15 14 14
Wind_Direction
329 313 308 323 340 344 327 294 307 341 347 329 326 322 333 346 337 332 347 355 354 347 345 340 327 320 320 322 325 315 300 299 299 305 303 240 178 186 187 176 171 173 172 169 191 239 279 302 315 325 331 330 328 325 326 328 326 332 341 347 349 343 328 313 256 250 259 268 279 283 281 282 283 286 290 291 293 291 288 286 283 281 281 278 275 271
317 306 310 332 333 315 305 285 283 311 318 311 321 329 337 350 344 331 332 341 346 340 337 338 328 315 307 316 338 328 294 279 292 295 281 238 190 179 172 164 165 169 172 176 195 216 244 284 309 332 343 340 332 328 330 333 334 339 346 347 352 356 346 327 279 257 254 253 263 271 272 277 280 280 284 286 286 285 283 280 277 275 275 275 274 272
314 306 313 336 332 305 299 289 263 288 298 298 318 333 334 339 333 323 320 325 333 334 336 339 330 323 314 321 339 334 298 239 275 276 236 208 178 162 156 156 160 161 167 178 189 199 230 292 320 332 341 341 335 330 329 330 332 338 341 337 345 359 358 328 288 273 260 248 255 267 272 274 276 276 278 280 281 281 284 285 282 278 275 274 273 272
312 311 321 335 343 331 297 277 263 291 299 302 319 330 332 340 337 329 327 328 330 331 343 345 321 327 18 8 353 345 329 198 178 161 158 162 158 153 151 154 162 171 181 196 204 212 249 285 311 323 332 336 335 330 326 327 329 333 335 333 338 349 354 343 300 269 259 254 260 271 282 281 275 276 277 277 279 282 287 291 290 286 280 276 273 271
300 309 326 332 348 6 330 291 308 320 308 300 316 328 331 338 339 333 329 333 337 331 354 355 330 339 18 4 11 58 99 117 129 137 139 143 145 147 152 157 171 192 203 216 221 219 233 259 288 304 317 323 325 321 319 322 326 332 336 336 340 342 343 345 334 282 260 260 264 271 282 285 275 276 281 282 284 284 284 285 285 282 278 275 272 269
295 302 311 320 332 337 321 311 318 323 306 296 308 323 327 327 327 328 328 333 337 337 347 345 341 350 352 360 77 119 117 115 120 129 130 130 133 138 149 158 176 198 209 221 230 240 256 271 283 290 299 308 313 313 315 319 323 331 339 341 344 346 346 347 351 343 288 269 267 266 271 275 274 277 281 284 287 287 284 282 280 278 275 274 270 267
301 297 295 309 322 320 315 312 312 312 307 305 312 316 315 315 315 322 330 327 324 324 322 327 322 293 324 20 120 127 124 124 124 127 128 131 139 147 156 167 186 202 212 227 245 264 276 285 291 295 302 311 318 321 323 326 328 333 340 344 345 346 349 352 352 354 342 318 303 283 269 265 268 273 276 280 285 287 287 287 288 286 281 277 272 269
305 297 290 294 311 318 312 306 307 308 307 309 311 309 308 310 308 313 324 318 309 308 312 332 328 283 309 103 128 131 133 133 130 134 134 136 146 156 168 183 198 208 223 242 262 276 285 298 306 310 313 315 319 323 324 327 330 334 338 345 348 345 347 352 353 351 349 342 332 320 298 273 266 265 268 276 283 286 285 284 287 290 288 284 280 277
302 298 297 295 307 318 313 306 308 302 303 303 302 303 306 311 306 302 310 306 304 304 313 357 3 301 141 120 130 140 141 132 127 136 142 148 160 170 180 193 203 214 231 244 259 273 282 294 303 310 314 313 312 315 321 325 329 330 333 338 341 339 339 345 351 351 349 344 335 328 320 302 276 266 264 267 277 285 284 278 279 283 286 288 289 287
299 302 301 300 307 310 299 307 300 291 299 296 295 300 303 308 305 298 303 297 297 306 332 5 9 23 137 126 128 135 140 138 142 153 159 169 181 184 186 193 203 222 246 262 275 283 287 293 299 305 310 310 310 313 317 321 322 324 327 330 331 330 331 335 338 340 341 340 336 329 321 314 298 280 273 269 275 284 281 274 272 274 278 284 289 289
292 303 302 301 341 274 259 282 292 296 303 300 303 307 305 306 300 297 311 292 267 153 64 5 358 360 153 144 138 135 138 150 167 177 178 189 201 206 215 230 250 269 281 287 294 300 306 310 307 307 307 307 307 307 307 309 312 318 322 325 326 326 327 327 327 328 329 329 329 328 321 312 301 290 284 273 274 282 280 272 268 270 275 278 281 283
292 292 300 127 126 264 262 265 287 295 294 307 324 317 311 321 316 318 346 337 255 200 329 354 349 343 142 150 155 149 149 162 183 190 193 206 219 234 253 265 275 285 293 300 306 307 309 310 307 307 308 307 307 305 306 308 309 311 315 320 322 322 320 320 320 320 319 318 318 318 315 309 297 285 279 267 263 269 274 273 270 268 270 273 274 275
316 239 219 198 249 290 296 293 299 296 295 317 330 325 336 357 357 353 343 329 284 257 288 333 338 340 138 153 162 160 163 175 191 202 206 215 228 244 257 266 277 287 294 299 304 307 309 309 309 311 310 308 306 305 305 306 305 304 305 308 313 315 314 313 312 311 310 309 311 311 308 303 296 287 281 272 260 255 259 268 271 269 267 269 272 272
328 230 230 258 276 310 331 331 327 316 317 326 327 335 15 39 34 346 295 307 307 293 305 324 330 320 154 164 176 179 188 200 212 222 226 235 248 260 269 277 286 291 296 302 304 307 308 307 307 307 306 304 303 303 302 301 300 299 298 297 298 301 303 304 304 304 303 302 303 303 303 300 294 288 282 274 266 258 254 256 262 266 265 265 269 270
321 261 263 282 297 321 330 337 338 317 313 318 313 326 334 184 142 222 247 249 268 283 304 319 323 231 185 187 191 196 208 218 228 238 247 259 268 278 285 288 292 294 299 304 305 306 305 304 305 303 302 302 300 301 301 300 300 299 299 298 297 296 296 297 298 298 298 296 296 297 298 296 291 286 281 275 268 260 255 252 253 260 263 262 264 265
297 277 285 288 289 312 312 301 308 310 310 311 299 313 312 250 266 274 255 258 261 278 297 291 290 250 224 210 200 204 216 224 233 244 252 266 273 275 279 277 281 287 293 297 299 300 301 301 302 303 303 303 302 303 302 302 302 302 303 302 301 301 299 298 298 297 296 294 293 293 293 292 289 284 279 277 272 265 259 253 251 254 259 260 261 261
287 282 299 296 278 294 301 294 299 308 306 305 307 320 321 290 292 284 260 265 274 303 266 237 220 197 194 197 202 205 218 228 235 248 256 267 270 268 270 273 279 285 288 292 293 293 294 295 297 299 302 304 306 308 308 309 309 309 308 308 307 305 303 302 301 299 299 297 294 291 289 288 286 284 280 276 273 270 264 258 253 252 255 257 258 257
290 291 302 309 298 295 301 301 304 294 283 299 319 325 320 292 284 283 260 283 330 343 242 229 219 196 185 196 209 210 221 231 244 262 266 270 271 271 275 278 283 286 288 291 291 291 292 294 297 300 303 306 308 310 312 314 313 313 312 311 309 307 306 305 304 302 302 302 300 296 290 286 283 282 281 277 274 271 268 263 256 252 253 255 256 254
297 299 303 310 309 307 310 310 311 265 221 242 336 339 336 300 268 303 326 324 313 309 246 240 242 223 215 225 221 216 228 242 261 277 276 277 280 283 288 292 297 301 303 303 303 303 305 306 307 307 307 308 308 309 310 310 310 309 309 307 306 305 305 306 306 304 303 304 305 303 298 291 285 281 279 277 275 272 269 267 261 254 252 253 254 253
300 300 298 306 310 308 308 311 319 286 221 226 261 316 346 320 276 285 292 274 254 250 233 244 252 239 234 233 220 224 257 268 276 282 284 291 298 303 308 311 314 314 313 312 311 312 312 311 309 308 307 308 309 309 308 308 307 305 303 303 302 302 303 304 304 304 304 304 304 303 301 297 292 285 280 276 273 269 267 267 265 258 253 252 252 252
303 293 283 297 305 305 305 308 314 307 280 268 270 293 326 319 297 285 279 273 259 235 194 195 244 246 237 225 219 247 279 282 282 290 297 304 310 314 316 317 316 313 311 310 312 312 311 310 309 308 309 311 312 311 310 309 306 303 301 302 301 302 302 302 302 303 304 305 304 304 301 298 295 291 285 277 272 268 262 261 264 262 256 253 252 251
298 293 285 294 301 300 302 304 305 303 294 287 287 297 307 306 303 297 279 276 266 256 251 217 241 250 239 236 253 277 291 291 293 300 304 306 309 310 311 311 308 306 306 308 311 312 312 312 312 313 314 314 313 311 310 309 307 305 303 302 301 301 302 303 302 302 302 303 303 304 303 299 295 293 289 281 272 266 260 256 258 261 260 256 255 252
296 295 289 292 296 298 303 309 307 292 281 279 279 278 277 281 295 299 280 294 290 282 284 279 264 253 246 246 256 274 288 293 296 300 301 301 302 302 302 301 300 299 301 304 307 309 310 311 313 314 313 311 309 307 307 306 307 307 306 303 302 302 304 306 306 304 301 300 298 299 301 300 295 291 290 286 275 266 259 254 252 256 259 259 259 255
300 297 292 296 299 301 305 312 313 290 278 272 255 247 251 258 281 296 294 295 283 269 271 278 272 237 237 244 253 271 286 291 294 297 297 297 296 295 295 294 295 297 299 303 305 306 308 309 310 308 306 305 305 306 305 305 306 308 307 307 307 306 305 307 309 308 304 300 297 295 296 297 294 288 287 288 282 270 260 253 249 249 254 258 259 256
295 290 292 303 310 312 314 326 329 309 285 259 246 241 250 262 278 289 294 294 279 260 249 236 245 243 232 245 263 276 288 291 292 293 293 293 293 293 293 294 296 297 299 301 302 302 303 302 301 300 300 302 305 306 306 307 308 309 308 308 309 307 305 306 309 311 308 303 298 295 293 294 292 287 284 284 284 277 263 254 249 246 248 253 257 257
291 283 284 291 295 298 299 301 306 303 288 272 266 261 263 275 284 291 297 294 278 273 253 225 241 261 258 258 267 274 281 285 286 287 289 292 293 294 295 295 296 296 296 297 297 297 298 298 300 301 303 305 305 305 306 307 308 308 308 309 310 308 307 308 310 312 311 308 303 298 296 295 293 289 283 280 281 279 267 253 248 247 246 248 253 258
292 288 287 285 276 278 287 293 297 294 282 275 274 271 271 279 288 296 297 282 275 281 275 259 259 270 272 273 274 276 279 280 282 285 288 290 291 292 292 292 292 293 293 294 295 297 299 303 307 307 306 304 304 304 304 304 304 305 306 307 309 309 309 310 311 311 312 312 308 303 301 299 296 292 286 280 277 278 271 255 247 248 247 246 249 253
290 291 292 291 290 291 293 295 295 285 276 274 276 279 281 280 284 287 282 275 278 283 278 277 278 279 282 287 286 283 282 282 283 286 288 289 290 291 293 294 296 297 296 297 299 301 304 308 310 309 306 303 301 300 300 299 299 301 303 305 306 307 307 308 308 308 311 312 308 305 302 300 298 294 288 283 277 276 273 259 248 248 249 245 246 249
285 287 289 291 293 294 293 295 295 287 279 276 275 280 284 281 277 275 270 271 276 272 270 278 283 282 286 290 287 284 284 283 284 287 288 290 292 295 297 299 299 299 298 299 302 305 307 309 309 308 306 303 300 297 296 296 296 298 300 300 301 302 303 305 304 304 309 310 305 302 301 298 298 296 291 286 280 277 276 263 249 249 251 246 243 246
282 284 288 290 290 290 290 292 294 289 283 281 279 280 281 279 274 270 267 266 266 265 267 274 277 278 281 282 280 279 280 281 284 286 289 292 295 298 299 299 297 297 297 300 301 303 305 305 305 305 305 303 300 296 294 294 295 296 296 296 296 298 300 301 302 303 307 306 301 300 299 297 297 295 292 289 284 281 279 266 250 249 253 246 238 239
282 282 284 286 285 284 285 288 290 288 286 285 282 281 281 282 280 276 273 270 267 266 267 270 271 273 275 275 276 277 278 282 285 288 290 293 296 298 298 296 296 295 295 296 296 296 297 298 300 302 303 303 299 295 294 294 293 294 294 294 295 296 298 300 302 304 305 301 298 299 298 296 296 294 292 292 290 286 281 265 249 250 254 245 234 235
281 280 280 281 278 277 281 286 285 284 284 280 278 283 287 287 283 280 278 274 270 268 268 269 270 272 274 274 275 277 280 283 286 288 290 293 295 297 296 295 294 293 292 292 292 293 295 296 298 300 301 300 297 295 293 291 291 291 292 294 295 296 298 300 301 304 303 299 297 298 298 297 296 294 292 294 293 289 280 261 247 249 251 242 233 235
278 277 278 277 274 277 282 283 281 284 283 276 280 290 293 284 276 274 272 270 268 268 268 269 271 273 275 275 277 280 282 285 287 289 291 294 297 297 294 293 291 290 291 293 294 296 297 297 298 298 297 297 296 296 294 292 291 291 292 293 295 296 297 297 299 301 300 298 297 298 297 296 295 294 293 295 295 288 277 258 246 246 245 237 231 231
276 275 275 273 271 274 278 279 282 283 273 278 288 294 283 271 267 266 264 263 263 265 267 271 275 278 279 281 283 285 287 289 291 292 294 296 297 296 293 291 290 291 293 296 297 298 297 296 296 295 296 297 298 299 298 297 296 295 295 295 296 296 295 295 296 297 297 297 297 296 296 295 295 294 294 296 293 284 274 259 246 242 239 233 229 229
272 272 271 269 265 267 272 278 285 276 271 283 297 293 270 264 261 259 260 260 263 268 271 273 275 278 281 284 286 288 290 293 294 294 296 297 295 294 293 292 292 294 296 298 298 297 296 296 297 298 299 299 300 301 301 301 301 299 298 297 296 297 294 292 294 294 294 298 298 295 294 294 294 294 293 294 288 278 272 258 244 240 237 229 226 227
268 267 266 263 260 261 262 255 245 265 278 284 287 280 278 273 267 269 272 273 274 276 276 275 278 282 285 288 290 291 294 297 297 297 298 298 296 295 295 296 296 297 298 298 298 297 297 298 299 300 300 299 300 301 301 302 303 302 300 299 297 295 291 290 291 291 293 298 296 292 293 294 295 293 292 291 284 276 270 254 242 242 240 229 225 227
261 260 259 255 252 251 248 246 254 268 279 279 275 278 279 274 274 280 284 284 284 283 282 284 287 289 290 292 294 295 298 300 303 304 303 302 301 300 300 300 300 299 298 297 297 297 296 297 297 298 299 298 299 300 301 303 303 302 301 300 297 293 289 289 289 288 293 297 293 291 294 297 295 292 291 290 285 279 268 250 241 243 239 227 226 230
255 254 253 249 247 247 244 251 264 270 274 276 279 282 276 269 271 280 286 289 290 288 287 287 287 288 292 294 295 298 299 301 305 309 309 308 307 306 305 304 302 300 299 298 298 297 295 295 297 299 301 300 300 301 303 304 303 302 301 300 296 292 291 290 288 289 294 293 290 293 297 298 294 291 292 292 286 277 261 245 238 243 240 229 224 226
256 255 252 247 245 244 237 237 249 253 259 271 279 279 275 277 284 289 292 291 288 282 279 277 280 287 292 295 296 299 299 301 306 312 312 311 309 308 307 305 304 302 300 299 299 298 297 296 298 301 303 302 301 302 304 305 304 304 302 299 297 294 291 290 290 292 292 288 290 297 300 296 293 294 296 292 281 267 254 241 233 238 239 232 232 211
255 251 244 240 240 242 237 237 246 253 258 264 268 270 277 286 292 293 290 284 279 279 281 284 289 293 294 295 296 298 299 302 307 311 312 310 308 307 305 304 303 302 301 301 300 299 299 298 298 300 302 302 302 304 305 306 306 304 300 298 297 295 293 292 293 292 288 288 294 300 299 296 296 300 299 286 270 257 242 223 206 218 223 224 232 123
254 247 240 238 240 240 238 240 249 255 258 261 264 268 275 280 278 268 259 263 272 282 288 291 293 293 293 294 296 299 302 304 305 308 309 307 305 304 303 302 303 303 304 303 302 302 303 301 300 301 302 303 304 305 306 307 306 303 298 296 296 296 296 297 294 291 290 293 298 299 297 298 302 303 295 273 257 236 200 172 145 172 193 190 166 62
249 246 242 239 239 239 239 242 250 257 260 262 264 267 268 264 254 250 257 263 269 278 285 289 290 291 292 295 298 302 304 305 305 306 305 303 303 303 303 303 305 307 309 309 307 306 306 305 306 306 306 307 307 308 309 308 305 301 298 297 296 297 299 298 294 295 297 299 299 299 300 305 307 301 282 259 238 198 172 160 137 142 150 127 94 59
248 245 241 240 239 237 238 242 251 258 257 257 260 257 253 250 248 251 257 263 271 279 283 286 289 291 294 298 301 303 304 305 305 304 302 302 304 304 304 306 309 311 313 314 312 310 309 309 311 312 310 310 311 312 312 309 304 302 301 301 300 298 299 299 297 300 303 302 302 304 306 311 308 288 262 244 214 185 175 164 141 128 122 109 90 64
255 249 248 249 246 239 234 236 242 247 247 248 248 243 237 240 246 252 259 268 275 280 284 288 292 294 297 300 302 303 304 305 304 302 303 305 306 306 308 311 313 314 314 315 314 312 311 312 314 314 313 313 314 314 312 309 304 302 303 304 303 300 302 303 303 305 306 305 306 309 313 314 301 268 244 219 187 172 166 158 146 131 116 111 97 69
254 254 257 256 252 247 245 246 247 247 249 250 249 247 245 248 252 257 264 272 279 284 289 293 295 297 299 301 302 303 304 303 302 304 307 308 310 312 315 317 318 317 314 314 314 313 313 314 315 315 315 315 314 313 311 308 304 302 304 306 309 309 308 308 308 309 309 309 310 314 319 314 289 255 234 202 174 161 152 146 137 123 111 108 106 95
250 252 258 260 258 256 255 255 255 256 258 259 258 257 257 259 263 267 272 278 284 288 291 293 296 298 301 302 303 303 302 301 304 307 310 312 315 319 322 323 323 321 317 316 315 315 315 316 316 317 318 317 315 312 309 305 303 303 303 306 311 313 311 311 311 311 312 313 315 319 324 311 284 257 231 193 171 162 161 149 133 124 125 129 131 124
257 255 257 260 262 262 261 261 261 259 258 259 261 262 263 266 270 273 277 282 286 289 291 293 295 298 301 301 301 300 300 303 307 310 313 317 321 324 327 329 329 329 327 324 321 320 320 319 318 320 322 320 317 313 307 303 303 302 299 303 310 312 312 311 313 315 318 320 322 328 329 303 274 260 231 187 168 163 168 165 150 143 145 149 148 137
266 265 262 259 260 263 264 266 266 262 255 254 259 262 265 268 271 275 279 283 285 287 289 292 296 299 299 298 296 298 302 307 310 312 318 324 327 329 332 332 332 334 333 330 326 323 321 320 319 321 323 322 321 318 311 305 305 300 297 306 313 314 313 314 317 323 327 328 327 327 320 265 217 210 197 179 170 165 164 163 159 154 153 154 151 141
269 268 266 264 265 266 265 264 266 265 261 258 258 261 264 268 271 275 281 285 285 284 286 290 297 299 296 295 297 302 307 311 313 317 324 329 330 331 333 333 333 334 332 329 325 322 320 319 318 319 321 321 321 318 314 313 312 303 298 306 312 313 315 318 326 332 338 347 322 309 287 175 158 146 145 157 161 151 137 126 131 153 162 161 156 150
269 269 270 269 269 270 270 267 267 268 267 265 262 261 264 268 271 276 284 287 284 282 285 291 296 295 293 296 303 307 310 314 318 323 328 330 331 331 331 330 330 331 329 326 323 323 324 321 319 320 321 321 320 317 314 317 320 310 302 305 310 312 315 325 336 338 347 73 95 249 180 151 142 134 132 138 138 129 124 123 120 130 157 160 156 157
273 276 279 276 274 276 277 274 271 271 271 271 270 269 269 270 272 280 287 287 282 284 289 293 294 293 296 302 307 310 313 317 322 326 328 330 330 328 327 330 331 329 327 324 323 327 329 327 325 326 327 328 327 322 314 318 328 333 328 321 323 321 320 336 350 345 346 104 103 152 156 143 141 144 136 128 127 127 128 131 130 131 141 144 145 155
Height
3157 3156 3155 3154 3154 3154 3153 3153 3152 3151 3150 3150 3149 3148 3147 3145 3143 3143 3142 3142 3140 3139 3138 3137 3136 3135 3133 3132 3131 3132 3132 3128 3127 3130 3129 3127 3128 3128 3129 3129 3130 3130 3129 3130 3129 3129 3128 3127 3127 3126 3126 3124 3122 3120 3118 3116 3115 3115 3116 3117 3117 3115 3112 3112 3115 3118 3120 3120 3119 3119 3122 3123 3122 3120 3118 3117 3118 3118 3118 3118 3117 3117 3117 3117 3117 3116
3157 3155 3154 3153 3154 3153 3152 3152 3151 3150 3150 3149 3148 3146 3146 3145 3143 3142 3142 3142 3141 3139 3138 3137 3135 3134 3133 3133 3131 3129 3129 3126 3126 3129 3128 3127 3128 3128 3129 3129 3129 3129 3129 3129 3128 3127 3126 3126 3125 3124 3123 3122 3121 3119 3118 3116 3116 3117 3119 3120 3119 3118 3117 3115 3116 3117 3118 3117 3115 3115 3117 3120 3120 3119 3117 3116 3116 3116 3116 3116 3116 3115 3115 3115 3115 3115
3156 3155 3153 3153 3153 3151 3151 3151 3150 3150 3149 3148 3147 3145 3145 3145 3143 3142 3141 3141 3141 3139 3137 3135 3134 3132 3133 3133 3129 3126 3126 3125 3126 3127 3127 3127 3127 3128 3128 3129 3128 3128 3128 3128 3127 3126 3125 3124 3124 3123 3122 3121 3120 3119 3118 3118 3118 3119 3120 3120 3119 3118 3118 3117 3116 3117 3116 3115 3114 3114 3117 3118 3118 3117 3116 3115 3114 3114 3115 3115 3114 3114 3114 3113 3113 3113
3155 3154 3153 3153 3152 3149 3149 3149 3149 3148 3148 3147 3146 3145 3145 3145 3144 3141 3140 3139 3139 3138 3137 3135 3133 3131 3132 3131 3129 3128 3126 3126 3127 3127 3127 3128 3126 3126 3127 3128 3128 3128 3127 3126 3125 3124 3123 3122 3122 3121 3120 3119 3119 3118 3118 3118 3118 3119 3120 3119 3117 3118 3117 3116 3115 3116 3115 3114 3114 3116 3121 3121 3117 3116 3115 3114 3113 3113 3114 3114 3114 3113 3112 3111 3110 3110
3153 3153 3153 3152 3151 3149 3148 3147 3147 3146 3147 3147 3146 3145 3145 3144 3144 3142 3140 3138 3137 3137 3136 3135 3133 3130 3130 3130 3129 3130 3128 3127 3129 3128 3127 3127 3126 3126 3126 3126 3126 3125 3124 3123 3122 3122 3121 3121 3120 3119 3119 3118 3118 3117 3117 3117 3116 3116 3117 3117 3116 3116 3116 3115 3114 3114 3113 3113 3113 3115 3119 3121 3118 3115 3114 3113 3112 3112 3112 3112 3112 3111 3110 3109 3108 3107
3151 3151 3151 3151 3150 3148 3147 3146 3145 3145 3146 3146 3145 3145 3144 3143 3143 3141 3140 3138 3135 3136 3135 3136 3136 3131 3130 3132 3131 3131 3129 3127 3130 3129 3127 3126 3126 3126 3125 3123 3122 3121 3121 3120 3120 3120 3120 3119 3119 3118 3118 3117 3117 3116 3115 3115 3115 3114 3114 3114 3114 3114 3114 3114 3113 3112 3111 3110 3110 3111 3113 3115 3115 3114 3113 3112 3111 3111 3110 3111 3111 3110 3108 3106 3104 3103
3149 3149 3150 3149 3148 3147 3146 3145 3145 3144 3144 3145 3144 3143 3143 3142 3141 3140 3139 3137 3135 3135 3134 3136 3138 3134 3132 3134 3134 3132 3129 3126 3128 3128 3126 3125 3125 3124 3122 3120 3119 3119 3119 3119 3119 3120 3120 3119 3118 3118 3118 3117 3116 3115 3114 3114 3114 3113 3112 3112 3113 3113 3113 3112 3112 3111 3111 3110 3109 3109 3109 3110 3111 3112 3111 3111 3110 3110 3109 3110 3112 3110 3107 3104 3102 3100
3149 3147 3147 3147 3146 3146 3145 3144 3143 3143 3143 3143 3142 3142 3141 3140 3140 3138 3137 3137 3135 3135 3134 3135 3136 3135 3134 3135 3135 3133 3128 3126 3126 3125 3125 3124 3122 3121 3119 3118 3119 3119 3119 3120 3119 3119 3119 3118 3117 3116 3116 3116 3115 3114 3114 3114 3113 3112 3111 3111 3111 3111 3111 3111 3110 3110 3109 3109 3108 3108 3107 3107 3108 3109 3109 3109 3108 3107 3107 3108 3109 3107 3106 3104 3104 3101
3148 3146 3146 3146 3145 3145 3144 3144 3143 3142 3142 3141 3141 3140 3140 3139 3138 3137 3136 3135 3134 3133 3134 3134 3133 3134 3136 3136 3135 3133 3127 3125 3125 3123 3122 3121 3119 3119 3118 3118 3119 3119 3119 3119 3119 3119 3118 3117 3116 3116 3115 3115 3115 3114 3114 3114 3113 3111 3110 3109 3109 3109 3109 3108 3108 3107 3107 3106 3106 3106 3106 3105 3105 3105 3107 3107 3107 3106 3105 3105 3105 3103 3102 3103 3103 3103
3147 3146 3145 3145 3145 3145 3144 3143 3142 3141 3141 3141 3140 3139 3139 3138 3137 3136 3135 3134 3133 3133 3134 3133 3132 3133 3135 3136 3135 3132 3127 3124 3123 3121 3120 3118 3118 3119 3119 3119 3119 3118 3118 3118 3118 3118 3117 3117 3116 3115 3114 3113 3113 3113 3113 3113 3112 3110 3109 3108 3107 3106 3106 3104 3104 3104 3104 3104 3104 3104 3103 3103 3102 3101 3102 3104 3106 3105 3104 3103 3102 3099 3098 3098 3099 3099
3147 3146 3145 3144 3145 3144 3143 3142 3141 3141 3140 3140 3139 3138 3137 3136 3136 3134 3134 3133 3133 3134 3134 3132 3131 3131 3133 3134 3133 3130 3126 3123 3122 3121 3120 3119 3119 3119 3119 3118 3118 3117 3117 3116 3116 3116 3115 3115 3114 3114 3113 3112 3111 3111 3111 3111 3110 3109 3107 3106 3105 3105 3104 3103 3102 3101 3101 3101 3101 3102 3101 3100 3099 3097 3097 3097 3100 3101 3100 3099 3098 3097 3096 3094 3094 3094
3147 3145 3144 3144 3144 3142 3141 3141 3140 3140 3139 3139 3138 3136 3135 3135 3134 3133 3133 3132 3133 3133 3132 3131 3130 3129 3129 3130 3129 3127 3126 3124 3123 3121 3120 3120 3119 3118 3118 3117 3116 3116 3115 3114 3114 3114 3113 3113 3112 3112 3111 3110 3109 3108 3108 3108 3108 3107 3105 3104 3103 3102 3102 3101 3100 3099 3098 3098 3098 3098 3098 3097 3096 3096 3094 3092 3092 3093 3093 3094 3094 3094 3093 3092 3091 3091
3145 3145 3144 3144 3143 3141 3140 3139 3139 3138 3138 3139 3137 3136 3136 3136 3136 3135 3134 3134 3133 3131 3130 3130 3129 3127 3127 3128 3127 3126 3126 3125 3123 3121 3120 3120 3119 3119 3118 3117 3116 3115 3114 3114 3113 3112 3111 3111 3110 3109 3108 3107 3106 3105 3104 3104 3104 3104 3103 3102 3101 3100 3099 3098 3098 3097 3097 3096 3095 3095 3094 3094 3093 3092 3091 3090 3089 3088 3087 3088 3088 3089 3089 3088 3088 3087
3144 3144 3143 3143 3142 3140 3139 3139 3138 3137 3137 3137 3136 3135 3136 3137 3139 3140 3138 3136 3134 3130 3128 3129 3127 3126 3126 3126 3126 3126 3125 3125 3124 3122 3121 3120 3120 3119 3118 3117 3116 3115 3114 3113 3111 3110 3109 3108 3107 3106 3105 3103 3102 3101 3100 3100 3100 3100 3099 3098 3098 3097 3096 3095 3094 3094 3094 3094 3093 3091 3091 3089 3088 3088 3087 3086 3086 3085 3084 3083 3083 3084 3084 3084 3083 3083
3145 3144 3142 3142 3142 3141 3140 3140 3139 3137 3136 3136 3136 3135 3135 3136 3138 3139 3138 3136 3134 3131 3128 3128 3126 3125 3125 3124 3125 3125 3124 3124 3123 3121 3121 3120 3119 3118 3117 3116 3114 3113 3112 3111 3109 3107 3105 3104 3103 3102 3101 3100 3099 3098 3097 3097 3096 3095 3094 3092 3092 3091 3091 3090 3090 3089 3089 3089 3089 3088 3087 3086 3085 3084 3083 3082 3081 3081 3080 3079 3078 3078 3078 3079 3079 3079
3144 3142 3142 3142 3141 3140 3139 3139 3139 3138 3136 3136 3135 3135 3135 3135 3135 3135 3134 3134 3133 3132 3130 3128 3127 3125 3123 3123 3123 3124 3123 3122 3121 3120 3120 3119 3118 3117 3115 3114 3113 3112 3111 3110 3108 3106 3103 3101 3099 3097 3096 3095 3095 3094 3094 3093 3092 3091 3090 3087 3085 3084 3083 3082 3082 3081 3081 3082 3083 3083 3082 3081 3081 3080 3079 3078 3077 3076 3075 3075 3074 3073 3072 3073 3073 3073
3142 3140 3140 3141 3141 3139 3138 3138 3139 3138 3136 3135 3134 3134 3134 3133 3133 3132 3131 3131 3131 3131 3129 3127 3126 3124 3123 3123 3122 3122 3121 3120 3120 3120 3119 3118 3116 3115 3113 3112 3111 3111 3110 3108 3106 3104 3102 3100 3098 3096 3094 3091 3090 3088 3087 3086 3085 3084 3083 3082 3079 3077 3076 3075 3073 3072 3072 3073 3074 3076 3076 3075 3074 3074 3074 3074 3073 3071 3070 3069 3069 3068 3067 3067 3067 3068
3142 3138 3137 3139 3139 3138 3137 3137 3137 3137 3136 3135 3134 3133 3132 3131 3131 3130 3130 3130 3131 3131 3128 3124 3124 3122 3121 3120 3119 3119 3119 3119 3119 3118 3117 3115 3113 3112 3110 3110 3109 3108 3107 3106 3104 3102 3100 3098 3096 3094 3091 3089 3086 3084 3081 3079 3077 3076 3075 3075 3073 3072 3070 3069 3068 3066 3065 3065 3065 3067 3068 3068 3067 3066 3067 3067 3068 3067 3065 3064 3063 3062 3061 3061 3061 3062
3141 3138 3135 3136 3137 3137 3136 3136 3135 3135 3134 3133 3133 3132 3132 3131 3130 3129 3129 3129 3130 3131 3128 3124 3122 3119 3118 3117 3117 3117 3117 3117 3116 3114 3112 3110 3109 3108 3107 3106 3105 3103 3101 3099 3097 3095 3093 3092 3090 3088 3086 3085 3083 3082 3080 3078 3075 3073 3072 3070 3069 3068 3066 3065 3064 3062 3061 3060 3059 3059 3060 3060 3060 3059 3058 3059 3060 3061 3061 3059 3057 3057 3056 3055 3055 3056
3141 3138 3135 3134 3135 3135 3135 3135 3134 3133 3132 3132 3131 3131 3131 3131 3130 3128 3128 3128 3128 3129 3127 3124 3120 3117 3116 3116 3116 3116 3115 3114 3112 3109 3108 3106 3105 3103 3101 3099 3097 3095 3093 3091 3089 3088 3087 3085 3084 3083 3082 3080 3078 3078 3077 3076 3074 3072 3070 3068 3066 3064 3063 3061 3060 3058 3057 3055 3054 3054 3053 3053 3052 3052 3051 3051 3052 3053 3054 3054 3052 3051 3051 3050 3049 3049
3139 3138 3134 3132 3133 3134 3134 3134 3133 3133 3132 3131 3129 3129 3129 3129 3128 3127 3126 3126 3125 3125 3124 3123 3119 3115 3114 3114 3114 3113 3112 3110 3108 3106 3105 3102 3100 3098 3096 3094 3092 3090 3089 3087 3086 3085 3083 3082 3080 3079 3077 3074 3071 3069 3069 3069 3068 3067 3066 3064 3062 3060 3058 3057 3055 3053 3052 3050 3049 3048 3048 3047 3046 3045 3044 3044 3044 3044 3046 3047 3047 3046 3045 3044 3043 3042
3137 3136 3133 3130 3131 3131 3131 3132 3132 3131 3131 3130 3129 3128 3128 3127 3126 3125 3124 3123 3123 3122 3121 3121 3118 3114 3112 3112 3111 3110 3109 3107 3105 3103 3101 3099 3097 3095 3094 3092 3091 3089 3087 3085 3083 3081 3079 3077 3075 3072 3070 3067 3065 3063 3061 3060 3060 3060 3060 3059 3057 3056 3053 3051 3050 3048 3046 3045 3044 3042 3042 3042 3041 3039 3038 3037 3037 3037 3038 3039 3040 3040 3039 3037 3036 3036
3135 3134 3130 3128 3128 3128 3128 3129 3129 3128 3128 3128 3128 3127 3127 3126 3125 3124 3124 3122 3122 3121 3119 3119 3116 3112 3110 3110 3109 3108 3106 3104 3102 3100 3099 3097 3096 3094 3093 3092 3090 3088 3086 3083 3081 3079 3076 3073 3070 3067 3065 3063 3061 3059 3057 3054 3053 3053 3053 3053 3052 3050 3048 3046 3045 3043 3041 3040 3039 3037 3036 3036 3036 3034 3032 3031 3030 3030 3030 3031 3032 3033 3032 3031 3030 3030
3133 3131 3128 3125 3123 3123 3125 3126 3126 3126 3125 3125 3125 3125 3125 3124 3124 3124 3122 3121 3120 3118 3118 3118 3114 3109 3108 3108 3107 3105 3102 3100 3099 3097 3097 3096 3094 3093 3091 3090 3088 3086 3083 3081 3079 3076 3074 3071 3068 3065 3062 3060 3058 3055 3053 3051 3050 3049 3048 3047 3045 3044 3043 3041 3039 3038 3036 3034 3033 3032 3030 3030 3030 3029 3027 3025 3023 3023 3023 3023 3024 3025 3024 3024 3024 3023
3131 3129 3127 3124 3121 3120 3121 3123 3124 3123 3124 3124 3123 3123 3123 3122 3122 3121 3120 3119 3117 3114 3114 3115 3110 3107 3107 3107 3105 3102 3099 3097 3097 3095 3093 3093 3091 3090 3088 3086 3084 3082 3079 3078 3075 3073 3071 3069 3066 3064 3061 3058 3055 3052 3049 3047 3046 3044 3043 3042 3041 3039 3038 3036 3034 3033 3031 3029 3027 3026 3024 3023 3023 3022 3021 3019 3017 3016 3016 3016 3016 3016 3016 3017 3017 3016
3128 3127 3127 3126 3124 3122 3121 3122 3122 3121 3121 3121 3120 3120 3120 3120 3120 3118 3118 3117 3113 3110 3109 3108 3106 3105 3105 3105 3103 3100 3098 3096 3094 3092 3090 3089 3087 3086 3085 3083 3080 3078 3076 3074 3073 3071 3068 3065 3062 3059 3057 3055 3052 3049 3046 3044 3041 3039 3037 3036 3036 3035 3033 3031 3029 3027 3026 3024 3021 3019 3017 3016 3015 3015 3014 3012 3011 3010 3009 3009 3009 3008 3008 3010 3010 3010
3124 3124 3124 3123 3123 3122 3120 3119 3120 3119 3117 3117 3117 3117 3117 3117 3116 3116 3115 3112 3110 3108 3103 3100 3102 3102 3101 3102 3101 3098 3096 3094 3091 3089 3088 3086 3084 3082 3081 3079 3076 3074 3072 3071 3069 3066 3063 3060 3057 3055 3052 3050 3048 3046 3043 3041 3037 3034 3031 3029 3029 3028 3027 3026 3024 3021 3019 3018 3015 3012 3010 3009 3008 3007 3006 3005 3004 3003 3002 3002 3002 3001 3001 3002 3003 3004
3122 3120 3120 3119 3117 3117 3117 3116 3116 3116 3114 3113 3114 3113 3113 3113 3112 3112 3110 3106 3108 3106 3096 3093 3097 3096 3094 3097 3097 3093 3092 3089 3087 3086 3084 3082 3080 3078 3076 3074 3071 3069 3067 3065 3063 3061 3058 3056 3053 3051 3048 3045 3044 3042 3039 3037 3034 3031 3027 3024 3022 3021 3020 3020 3018 3016 3014 3012 3009 3006 3003 3002 3001 3000 2999 2997 2997 2997 2996 2995 2995 2994 2994 2996 2997 2997
3120 3117 3116 3116 3114 3113 3113 3113 3112 3112 3110 3109 3110 3109 3108 3108 3108 3107 3104 3102 3105 3102 3092 3090 3093 3091 3090 3092 3091 3088 3087 3084 3083 3081 3079 3077 3075 3073 3071 3069 3066 3064 3061 3059 3058 3056 3054 3051 3049 3047 3044 3042 3039 3037 3035 3032 3030 3027 3024 3021 3018 3016 3015 3014 3012 3010 3009 3007 3004 3000 2997 2995 2994 2993 2991 2990 2989 2989 2989 2988 2988 2988 2988 2989 2990 2991
3117 3114 3114 3114 3111 3109 3110 3110 3109 3108 3106 3105 3105 3105 3103 3102 3102 3101 3099 3098 3099 3095 3090 3090 3089 3086 3087 3088 3086 3084 3082 3080 3078 3077 3074 3072 3070 3069 3067 3064 3061 3059 3057 3055 3053 3051 3049 3047 3045 3043 3040 3037 3035 3032 3030 3027 3025 3023 3020 3017 3015 3012 3010 3008 3006 3004 3003 3001 2998 2994 2991 2989 2988 2986 2985 2983 2982 2982 2982 2981 2981 2981 2982 2983 2984 2985
3114 3112 3111 3111 3108 3105 3106 3107 3106 3105 3102 3100 3099 3099 3098 3097 3096 3095 3094 3093 3093 3090 3088 3088 3085 3083 3084 3083 3081 3080 3077 3075 3074 3072 3070 3069 3067 3065 3063 3060 3057 3055 3053 3051 3049 3047 3044 3042 3040 3038 3035 3033 3030 3027 3024 3022 3019 3017 3014 3012 3010 3007 3004 3002 2999 2997 2997 2995 2992 2988 2985 2983 2982 2980 2978 2976 2975 2975 2975 2974 2974 2975 2975 2976 2977 2979
3112 3110 3108 3109 3105 3100 3101 3104 3103 3101 3099 3095 3092 3092 3093 3092 3090 3089 3088 3088 3087 3085 3084 3083 3081 3080 3080 3079 3076 3075 3073 3072 3070 3067 3066 3065 3064 3062 3059 3056 3054 3051 3049 3047 3044 3042 3040 3037 3035 3032 3029 3027 3024 3021 3018 3015 3012 3010 3008 3006 3003 3001 2998 2996 2993 2991 2990 2988 2985 2982 2979 2977 2976 2974 2972 2970 2969 2968 2967 2967 2967 2968 2969 2970 2971 2972
3110 3108 3106 3107 3103 3097 3098 3100 3099 3099 3095 3087 3085 3088 3088 3087 3085 3084 3083 3083 3082 3080 3079 3079 3077 3077 3076 3074 3072 3071 3070 3068 3066 3063 3061 3061 3060 3058 3054 3052 3049 3047 3045 3042 3040 3037 3035 3032 3029 3026 3023 3021 3018 3015 3012 3009 3006 3004 3002 3000 2997 2994 2992 2989 2987 2985 2984 2982 2979 2976 2973 2971 2970 2968 2966 2964 2963 2961 2961 2960 2960 2962 2963 2963 2964 2966
3106 3105 3104 3104 3101 3096 3095 3097 3097 3096 3088 3080 3081 3085 3083 3081 3081 3081 3080 3079 3078 3077 3077 3076 3074 3072 3071 3069 3068 3067 3066 3064 3061 3058 3058 3057 3055 3053 3050 3048 3045 3043 3041 3038 3035 3032 3029 3026 3023 3020 3017 3015 3012 3009 3006 3003 3001 2999 2996 2994 2990 2987 2985 2982 2981 2979 2978 2976 2973 2970 2967 2966 2965 2962 2960 2959 2957 2955 2954 2953 2954 2956 2957 2957 2959 2960
3102 3102 3101 3100 3099 3095 3094 3096 3096 3088 3078 3076 3079 3080 3078 3078 3078 3077 3077 3077 3076 3075 3074 3073 3071 3069 3068 3066 3065 3063 3061 3060 3057 3055 3055 3055 3053 3049 3047 3044 3041 3039 3036 3033 3030 3026 3023 3020 3016 3013 3011 3008 3005 3002 2999 2997 2995 2992 2990 2987 2984 2980 2978 2975 2974 2973 2972 2970 2968 2964 2962 2961 2959 2956 2954 2953 2951 2949 2948 2947 2948 2950 2951 2952 2953 2955
3097 3097 3097 3096 3095 3093 3092 3093 3089 3079 3073 3076 3078 3076 3075 3075 3075 3074 3073 3073 3073 3072 3070 3069 3067 3066 3065 3063 3061 3059 3057 3055 3053 3052 3052 3051 3049 3046 3043 3040 3037 3034 3031 3027 3024 3020 3016 3013 3010 3007 3004 3001 2999 2996 2993 2990 2987 2984 2982 2980 2977 2974 2971 2969 2968 2967 2966 2964 2961 2959 2957 2956 2953 2951 2949 2948 2945 2943 2942 2942 2943 2945 2946 2947 2949 2950
3092 3091 3091 3091 3090 3089 3088 3086 3081 3076 3073 3073 3073 3074 3074 3072 3072 3071 3070 3069 3069 3068 3066 3065 3063 3062 3060 3059 3057 3055 3053 3050 3048 3048 3049 3047 3045 3042 3039 3036 3033 3029 3025 3022 3018 3014 3011 3008 3004 3001 2998 2995 2993 2990 2987 2984 2981 2977 2975 2972 2969 2967 2965 2963 2962 2962 2961 2959 2956 2954 2953 2951 2948 2945 2944 2942 2939 2938 2937 2937 2939 2942 2942 2943 2944 2944
3087 3086 3087 3087 3085 3084 3084 3083 3079 3076 3071 3068 3069 3071 3070 3069 3070 3069 3067 3065 3065 3064 3062 3060 3059 3057 3056 3055 3053 3051 3049 3046 3043 3043 3044 3041 3037 3035 3032 3029 3026 3022 3019 3015 3012 3008 3005 3002 2998 2995 2992 2989 2987 2984 2981 2977 2974 2971 2968 2966 2963 2961 2959 2958 2957 2957 2956 2953 2951 2950 2949 2946 2943 2940 2938 2936 2934 2932 2932 2934 2937 2939 2938 2938 2938 2938
3083 3082 3083 3083 3081 3080 3081 3080 3076 3072 3067 3066 3067 3067 3066 3067 3067 3066 3064 3062 3061 3060 3058 3056 3055 3054 3053 3052 3050 3048 3046 3042 3038 3037 3037 3033 3030 3027 3023 3020 3017 3014 3011 3009 3005 3001 2998 2995 2992 2989 2986 2983 2980 2978 2975 2971 2967 2965 2962 2960 2958 2956 2954 2953 2953 2952 2951 2949 2947 2946 2944 2941 2938 2935 2933 2931 2929 2928 2930 2932 2933 2934 2934 2934 2934 2933
3079 3078 3079 3078 3077 3076 3077 3075 3071 3067 3065 3065 3065 3065 3064 3064 3064 3064 3062 3059 3057 3055 3054 3053 3053 3052 3050 3049 3047 3045 3044 3040 3035 3032 3030 3027 3023 3021 3017 3013 3009 3006 3003 3001 2998 2995 2991 2987 2985 2982 2980 2977 2974 2972 2969 2965 2961 2959 2958 2956 2954 2952 2951 2949 2948 2948 2946 2945 2943 2941 2939 2935 2932 2930 2928 2926 2925 2926 2929 2929 2929 2930 2931 2931 2930 2928
3075 3074 3074 3073 3072 3072 3073 3071 3067 3064 3062 3063 3063 3063 3063 3062 3061 3060 3058 3055 3053 3052 3051 3051 3051 3049 3047 3046 3044 3042 3041 3038 3033 3030 3026 3022 3018 3014 3011 3008 3004 3001 2997 2993 2990 2988 2984 2982 2979 2977 2975 2972 2969 2966 2963 2959 2956 2954 2953 2952 2950 2948 2947 2945 2944 2944 2943 2941 2939 2936 2933 2930 2928 2926 2923 2922 2923 2925 2927 2927 2926 2928 2929 2928 2926 2925
3071 3070 3069 3069 3068 3068 3069 3067 3064 3061 3059 3059 3060 3060 3060 3059 3057 3055 3053 3052 3051 3050 3049 3049 3048 3046 3044 3043 3041 3038 3036 3034 3030 3026 3022 3018 3013 3009 3005 3001 2998 2995 2991 2987 2985 2983 2980 2977 2975 2973 2970 2967 2964 2961 2958 2955 2952 2950 2949 2948 2946 2945 2944 2943 2942 2941 2940 2937 2934 2931 2929 2926 2923 2922 2920 2921 2923 2924 2924 2925 2925 2925 2926 2926 2925 2925
3067 3066 3065 3064 3064 3065 3065 3065 3062 3059 3056 3056 3056 3056 3055 3054 3052 3050 3050 3050 3048 3047 3047 3046 3045 3043 3041 3038 3036 3034 3031 3029 3025 3021 3017 3013 3008 3003 2999 2996 2992 2988 2985 2982 2980 2978 2975 2973 2970 2968 2965 2962 2959 2956 2953 2951 2949 2947 2945 2944 2943 2943 2942 2941 2940 2939 2936 2933 2930 2927 2925 2922 2920 2918 2918 2920 2922 2922 2922 2923 2923 2924 2925 2926 2926 2926
3063 3062 3060 3060 3060 3061 3060 3059 3057 3054 3053 3053 3052 3052 3051 3049 3048 3047 3047 3046 3045 3045 3044 3042 3041 3039 3037 3035 3032 3029 3026 3023 3019 3015 3011 3007 3002 2998 2994 2990 2986 2982 2979 2977 2975 2974 2971 2968 2966 2963 2960 2958 2955 2952 2949 2947 2946 2944 2943 2942 2941 2941 2940 2939 2938 2936 2933 2930 2926 2923 2921 2919 2916 2916 2917 2919 2920 2920 2920 2921 2922 2923 2925 2927 2927 2927
3057 3056 3056 3056 3056 3055 3054 3053 3053 3052 3050 3049 3049 3048 3047 3046 3046 3045 3044 3044 3043 3042 3040 3039 3038 3036 3034 3032 3028 3025 3022 3018 3014 3010 3006 3001 2998 2993 2989 2984 2980 2977 2975 2973 2972 2970 2968 2965 2962 2960 2957 2954 2952 2949 2946 2945 2943 2941 2941 2940 2940 2939 2939 2938 2935 2933 2930 2926 2923 2920 2919 2916 2914 2914 2915 2917 2918 2919 2920 2921 2921 2922 2925 2928 2929 2930
3054 3053 3052 3052 3052 3051 3050 3050 3051 3050 3047 3045 3045 3045 3045 3044 3043 3043 3042 3041 3040 3039 3038 3036 3034 3032 3031 3028 3024 3021 3017 3014 3009 3005 3001 2998 2993 2988 2983 2979 2976 2974 2972 2970 2969 2967 2964 2962 2959 2957 2954 2952 2949 2946 2944 2942 2941 2940 2939 2939 2939 2938 2937 2935 2933 2930 2927 2923 2920 2918 2917 2916 2914 2913 2914 2915 2917 2918 2921 2922 2922 2923 2927 2931 2932 2933
3050 3050 3050 3050 3049 3048 3047 3046 3046 3046 3044 3042 3042 3042 3042 3041 3040 3040 3039 3038 3037 3036 3035 3033 3032 3030 3028 3024 3020 3017 3013 3010 3005 3001 2997 2994 2988 2983 2979 2975 2973 2971 2970 2968 2966 2964 2962 2959 2957 2954 2952 2949 2946 2943 2941 2940 2939 2939 2938 2938 2937 2937 2935 2933 2930 2928 2925 2921 2918 2917 2917 2916 2915 2914 2914 2915 2917 2919 2922 2924 2925 2925 2927 2931 2934 2936
3045 3045 3046 3046 3046 3045 3044 3043 3043 3043 3041 3040 3039 3038 3038 3037 3037 3037 3036 3035 3034 3033 3032 3031 3029 3027 3024 3021 3017 3014 3010 3006 3002 2997 2993 2989 2983 2979 2976 2974 2972 2970 2968 2966 2964 2962 2960 2957 2955 2952 2950 2947 2944 2941 2939 2938 2938 2937 2937 2937 2936 2935 2933 2931 2929 2926 2924 2921 2918 2916 2916 2916 2915 2914 2914 2917 2920 2922 2923 2925 2926 2927 2928 2931 2934 2938
3039 3040 3041 3042 3042 3040 3040 3040 3040 3039 3038 3037 3036 3035 3034 3034 3034 3034 3033 3032 3031 3030 3029 3028 3027 3024 3020 3017 3014 3010 3006 3002 2998 2994 2989 2985 2980 2977 2975 2973 2971 2969 2967 2965 2963 2960 2958 2955 2953 2950 2948 2945 2942 2939 2937 2936 2936 2936 2935 2935 2935 2933 2931 2929 2927 2925 2923 2921 2919 2916 2914 2914 2914 2914 2915 2918 2921 2923 2925 2926 2927 2929 2931 2933 2935 2939
3033 3034 3036 3038 3035 3032 3033 3035 3036 3035 3034 3033 3033 3032 3031 3031 3031 3030 3030 3029 3028 3027 3026 3025 3023 3020 3017 3014 3010 3006 3002 2998 2994 2990 2985 2982 2978 2976 2974 2972 2970 2968 2966 2963 2961 2959 2956 2954 2951 2948 2946 2943 2940 2938 2936 2935 2935 2934 2934 2935 2934 2933 2930 2928 2926 2924 2923 2922 2920 2917 2914 2914 2914 2916 2918 2920 2922 2924 2926 2928 2930 2932 2934 2936 2938 2940
3028 3029 3031 3032 3029 3027 3027 3030 3031 3030 3029 3029 3029 3029 3028 3027 3027 3027 3026 3025 3024 3023 3023 3021 3018 3015 3013 3011 3007 3003 2999 2995 2990 2986 2982 2980 2977 2976 2974 2972 2969 2967 2964 2962 2959 2957 2954 2952 2949 2947 2944 2941 2939 2937 2936 2935 2935 2935 2935 2934 2933 2932 2930 2927 2925 2924 2924 2923 2921 2918 2916 2916 2917 2919 2920 2922 2924 2926 2927 2931 2933 2935 2937 2939 2941 2943